Weather WX

World > North America > United States > Mississippi

Gulfport, Mississippi Regional Weather

Lat: 30.39N, Lon: 89.07W
Wx Zone: MSZ081
Warning FLW WEATHER ALERT - (More Info. Click Here) Warning
Feedback

Gulfport, MS Regional Weather

Expires:201906171900;;638806
ASUS44 KJAN 171810
RWRMS 

MISSISSIPPI HOURLY WEATHER ROUNDUP
NATIONAL WEATHER SERVICE JACKSON MS
100 PM CDT MON JUN 17 2019

NOTE: "FAIR: INDICATES FEW OR NO CLOUDS BELOW 12,000 FEET WITH NO
SIGNIFICANT WEATHER AND/OR OBSTRUCTIONS TO VISIBILITY.


MSZ080>082-171900-
COASTAL MISSISSIPPI
  
CITY           SKY/WX    TMP DP  RH WIND       PRES   REMARKS
BAY ST LOUIS   MOSUNNY   88  73  62 S10G18    29.97F HX  96           
BILOXI         FAIR      88  75  65 S9        29.98F HX  98           
6HR MIN TEMP:  74; 6HR MAX TEMP:  90;                                

PASCAGOULA     PTSUNNY   89  72  56 SE12G20   29.99S HX  96           
6HR MIN TEMP:  75; 6HR MAX TEMP:  91;                                

GULFPORT       FAIR      88  74  63 SE16G22   29.98F HX  96           
6HR MIN TEMP:  76; 6HR MAX TEMP:  88;                                

$$


SKY/WX - Weather  TMP - Temperature  DP - Dew Point  RH - Relative Humidity
WIND - Wind Direction/Speed PRES - Barometric Pressure VSB - Visibility
WCI - Wind Chill Index E13G22 Wind - East Wind 13 mph/Gusts of 22 mph